FW3090 Weather Reports


Display with metric or nautical units.
time (UTC)temp
F
wind
direction
speed
MPH
gust
MPH
rain 1hr
in
rain 24hr
in
rain mn
in
humidity
%
barometer
mb
20260904054344 76 81 2.0 5.0 0.00 0.05 0.00 88 1010.4
20260904053627 76 81 3.0 6.0 0.00 0.05 0.00 88 1010.5
20260904053127 76 78 3.0 6.0 0.00 0.05 0.00 88 1010.5
20260904052627 76 82 3.0 5.0 0.00 0.05 0.00 88 1010.5
20260904052126 76 76 3.0 6.0 0.00 0.05 0.00 88 1010.6
20260904051619 76 85 3.0 6.0 0.00 0.05 0.00 87 1010.7
20260904051113 76 78 3.0 6.0 0.00 0.05 0.00 87 1010.7
20260904050607 76 87 3.0 6.0 0.00 0.05 0.00 87 1010.6
20260904045557 76 94 2.0 6.0 0.00 0.05 0.05 87 1010.7
20260904045051 76 92 2.0 6.0 0.00 0.05 0.05 87 1010.7
20260904044811 76 92 2.0 6.0 0.00 0.05 0.05 87 1010.7
20260904044039 76 96 2.0 6.0 0.00 0.05 0.05 87 1010.7
20260904043532 76 96 3.0 6.0 0.00 0.05 0.05 87 1010.7
20260904043026 76 94 3.0 6.0 0.00 0.05 0.05 87 1010.8
20260904042521 76 86 3.0 6.0 0.00 0.05 0.05 87 1010.8
20260904042237 76 94 3.0 7.0 0.00 0.05 0.05 86 1010.9
20260904041508 76 90 3.0 7.0 0.00 0.05 0.05 86 1010.9
20260904041003 76 88 3.0 6.0 0.00 0.05 0.05 86 1010.9
20260904040457 76 90 3.0 7.0 0.00 0.05 0.05 86 1010.9
20260904035951 76 90 3.0 7.0 0.00 0.05 0.05 86 1010.9
20260904035445 76 88 3.0 6.0 0.00 0.05 0.05 86 1011.0
20260904034938 76 85 3.0 6.0 0.00 0.05 0.05 86 1010.9
20260904034437 76 99 2.0 4.0 0.00 0.05 0.05 86 1010.9
20260904033936 76 98 2.0 5.0 0.00 0.05 0.05 86 1010.9
20260904033700 76 146 2.0 7.0 0.00 0.05 0.05 86 1011.0
20260904032937 76 78 2.0 7.0 0.00 0.05 0.05 86 1011.0
20260904032437 76 107 1.0 6.0 0.00 0.05 0.05 86 1010.9
20260904031936 76 95 1.0 7.0 0.00 0.05 0.05 86 1011.1
20260904031435 76 95 2.0 7.0 0.00 0.05 0.05 86 1010.9
20260904030933 76 92 0.0 4.0 0.00 0.05 0.05 86 1010.9
20260904030430 76 104 0.0 2.0 0.00 0.05 0.05 85 1010.8
20260904025931 76 105 1.0 2.0 0.00 0.05 0.05 85 1010.8
20260904025909 76 105 1.0 3.0 0.00 0.05 0.05 85 1010.6
20260904024930 76 105 2.0 3.0 0.00 0.05 0.05 85 1010.7
20260904024430 76 99 2.0 3.0 0.00 0.05 0.05 85 1010.8
20260904023930 76 96 2.0 3.0 0.00 0.05 0.05 85 1010.8
20260904023431 77 99 2.0 3.0 0.00 0.05 0.05 84 1010.7
20260904022927 77 100 2.0 3.0 0.00 0.05 0.05 84 1010.8
20260904022426 77 88 2.0 3.0 0.00 0.05 0.05 84 1010.7
20260904021927 77 88 2.0 3.0 0.00 0.05 0.05 84 1010.7
20260904021652 77 88 3.0 6.0 0.00 0.05 0.05 83 1010.6
20260904020927 77 88 3.0 6.0 0.00 0.05 0.05 83 1010.7
20260904020427 77 89 3.0 5.0 0.00 0.05 0.05 83 1010.6
20260904015927 77 87 3.0 6.0 0.00 0.05 0.05 83 1010.6
20260904015426 78 87 3.0 6.0 0.00 0.05 0.05 83 1010.6
20260904014926 78 82 3.0 4.0 0.00 0.05 0.05 83 1010.5
20260904014648 78 103 3.0 6.0 0.00 0.05 0.05 83 1010.6
20260904013923 78 92 3.0 6.0 0.00 0.05 0.05 83 1010.6
20260904013423 78 87 3.0 6.0 0.00 0.05 0.05 82 1010.5
20260904012922 78 85 1.0 6.0 0.00 0.05 0.05 82 1010.5
20260904012906 78 99 0.0 0.0 0.00 0.05 0.05 82 1010.4
20260904011923 78 99 0.0 0.0 0.00 0.05 0.05 82 1010.4
20260904011422 79 97 0.0 1.0 0.00 0.05 0.05 82 1010.3
20260904011150 79 95 0.0 2.0 0.00 0.05 0.05 82 1010.3
20260904010423 80 95 1.0 2.0 0.00 0.05 0.05 81 1010.3
20260904005916 80 94 1.0 3.0 0.00 0.05 0.05 81 1010.3
20260904005409 80 94 0.0 3.0 0.00 0.05 0.05 81 1010.0
20260904005131 80 95 0.0 1.0 0.00 0.05 0.05 80 1010.1
20260904004358 80 94 0.0 3.0 0.00 0.05 0.05 81 1010.0
20260904003852 80 95 1.0 7.0 0.00 0.05 0.05 80 1010.0
20260904003345 80 95 2.0 7.0 0.00 0.05 0.05 80 1010.1
20260904002840 81 96 1.0 6.0 0.00 0.05 0.05 80 1009.8
20260904002335 81 88 0.0 6.0 0.00 0.05 0.05 80 1009.9
20260904001827 81 88 2.0 6.0 0.00 0.05 0.05 80 1009.8
20260904001322 81 88 3.0 7.0 0.00 0.05 0.05 80 1009.9
20260904000815 81 100 1.0 7.0 0.00 0.05 0.05 79 1009.9
20260904000311 81 110 0.0 3.0 0.00 0.05 0.05 79 1009.9
20260904000022 81 105 0.0 4.0 0.00 0.05 0.05 79 1010.0
20260903235258 81 89 0.0 4.0 0.00 0.05 0.05 79 1010.0
20260903234751 81 111 0.0 0.0 0.00 0.05 0.05 78 1010.0
20260903234246 81 109 0.0 0.0 0.00 0.05 0.05 78 1010.0
20260903233739 82 157 0.0 1.0 0.00 0.05 0.05 78 1010.1
20260903233234 82 158 1.0 5.0 0.00 0.05 0.05 77 1010.1
20260903232951 82 158 1.0 5.0 0.00 0.05 0.05 77 1010.1
20260903232221 82 126 1.0 6.0 0.00 0.05 0.05 76 1010.3
20260903231716 82 103 1.0 6.0 0.00 0.05 0.05 76 1010.3
20260903231210 82 94 1.0 7.0 0.00 0.05 0.05 76 1010.1
20260903230704 82 118 3.0 8.0 0.00 0.05 0.05 75 1010.3
20260903230156 82 126 3.0 8.0 0.00 0.05 0.05 75 1010.3
20260903225651 82 113 3.0 6.0 0.00 0.05 0.05 75 1010.0
20260903225144 83 120 3.0 6.0 0.00 0.05 0.05 74 1010.0
20260903224856 83 129 3.0 7.0 0.00 0.05 0.05 74 1010.1
20260903224131 83 142 4.0 10.0 0.00 0.05 0.05 74 1010.0
20260903223626 83 94 5.0 10.0 0.00 0.05 0.05 73 1010.0
20260903223119 83 110 5.0 10.0 0.00 0.05 0.05 73 1010.0
20260903222614 83 214 4.0 9.0 0.00 0.05 0.05 73 1010.3
20260903222107 83 117 4.0 10.0 0.00 0.05 0.05 74 1010.3
20260903221602 83 86 4.0 10.0 0.00 0.05 0.05 73 1010.3
20260903221055 83 90 3.0 9.0 0.00 0.05 0.05 73 1010.4
20260903220550 83 116 4.0 9.0 0.00 0.05 0.05 73 1010.6
20260903220044 83 105 4.0 9.0 0.00 0.05 0.05 72 1010.8
20260903215809 83 109 6.0 13.0 0.00 0.05 0.05 71 1010.6
20260903215251 83 121 6.0 13.0 0.00 0.05 0.05 71 1010.4
20260903214527 83 91 5.0 10.0 0.00 0.05 0.05 72 1010.5
20260903214021 83 99 4.0 11.0 0.00 0.05 0.05 72 1010.7
20260903213514 83 129 5.0 11.0 0.00 0.05 0.05 71 1010.9
20260903213008 83 122 5.0 12.0 0.00 0.05 0.05 71 1010.8
20260903212503 83 115 4.0 12.0 0.00 0.05 0.05 71 1010.7
20260903211955 83 125 4.0 12.0 0.00 0.05 0.05 71 1010.9
20260903211718 83 130 4.0 12.0 0.00 0.05 0.05 70 1011.1
20260903210952 83 106 4.0 15.0 0.00 0.05 0.05 71 1011.1
20260903210453 83 123 4.0 15.0 0.00 0.05 0.05 70 1011.1
20260903205952 83 105 3.0 9.0 0.00 0.05 0.05 72 1010.9
20260903205452 83 128 3.0 9.0 0.00 0.05 0.05 73 1011.0
20260903204952 83 125 5.0 10.0 0.00 0.05 0.05 72 1010.8
20260903204712 83 119 5.0 12.0 0.00 0.05 0.05 72 1010.6
20260903203951 83 106 5.0 12.0 0.00 0.05 0.05 70 1010.6
20260903203451 83 113 4.0 10.0 0.00 0.05 0.05 72 1010.7
20260903202953 83 123 4.0 10.0 0.00 0.05 0.05 74 1010.8
20260903202714 82 158 3.0 10.0 0.00 0.05 0.05 75 1010.8
20260903201952 81 171 3.0 7.0 0.00 0.05 0.05 75 1010.9
20260903201452 81 88 4.0 9.0 0.00 0.05 0.05 73 1010.9
20260903201210 82 104 3.0 9.0 0.00 0.05 0.05 74 1010.9
20260903200452 82 131 2.0 5.0 0.00 0.05 0.05 74 1011.0
20260903195953 82 120 2.0 9.0 0.00 0.05 0.05 73 1011.0
20260903195718 82 139 1.0 9.0 0.00 0.05 0.05 74 1011.0
20260903194945 81 111 1.0 6.0 0.00 0.05 0.05 75 1011.1
20260903194440 81 90 1.0 4.0 0.00 0.05 0.05 76 1011.4
20260903194156 81 113 2.0 8.0 0.00 0.05 0.05 75 1011.5
20260903193646 81 91 3.0 9.0 0.00 0.05 0.05 75 1011.6
20260903193144 81 111 3.0 9.0 0.00 0.05 0.05 75 1011.6
20260903192415 81 90 3.0 8.0 0.00 0.05 0.05 74 1011.8
20260903191910 81 84 3.0 8.0 0.00 0.05 0.05 74 1012.0
20260903191405 81 100 2.0 7.0 0.00 0.05 0.05 75 1012.0
20260903190857 81 84 0.0 7.0 0.00 0.05 0.05 74 1011.9
20260903190615 81 88 0.0 4.0 0.00 0.05 0.05 78 1011.9
20260903185845 80 88 1.0 4.0 0.00 0.05 0.05 77 1011.8
20260903185605 80 89 0.0 3.0 0.00 0.05 0.05 76 1011.8
20260903184842 80 89 1.0 4.0 0.00 0.05 0.05 78 1011.8
20260903184342 79 82 1.0 4.0 0.00 0.05 0.05 78 1011.7
20260903183842 79 87 0.0 3.0 0.00 0.05 0.05 78 1011.6
20260903183343 79 89 1.0 3.0 0.00 0.05 0.05 79 1011.5
20260903182842 79 89 1.0 4.0 0.00 0.05 0.05 78 1011.5
20260903182342 79 94 2.0 7.0 0.00 0.05 0.05 79 1011.4
20260903182058 79 88 2.0 7.0 0.00 0.05 0.05 78 1011.3
20260903181340 79 92 3.0 8.0 0.00 0.05 0.05 79 1011.3
20260903180837 78 88 3.0 8.0 0.00 0.05 0.05 81 1011.4
20260903180559 78 58 2.0 8.0 0.00 0.05 0.05 80 1011.5
20260903175338 78 98 2.0 8.0 0.00 0.05 0.05 80 1011.7
20260903174838 78 162 2.0 8.0 0.00 0.05 0.05 80 1011.6
20260903174334 78 98 3.0 9.0 0.00 0.05 0.05 80 1011.6
20260903173833 77 111 5.0 11.0 0.00 0.05 0.05 80 1011.5
20260903173333 77 91 4.0 11.0 0.00 0.05 0.05 80 1011.6
20260903172833 77 86 3.0 9.0 0.00 0.05 0.05 81 1011.6
20260903172333 77 120 4.0 9.0 0.00 0.05 0.05 80 1011.7
20260903171834 77 87 3.0 9.0 0.00 0.05 0.05 81 1011.7
20260903171334 77 101 3.0 7.0 0.00 0.05 0.05 81 1011.7
20260903170834 77 120 4.0 10.0 0.00 0.05 0.05 81 1011.5
20260903170334 76 161 6.0 14.0 0.00 0.05 0.05 80 1011.3
20260903165834 77 88 5.0 14.0 0.00 0.05 0.05 79 1011.5
20260903165553 77 105 4.0 8.0 0.00 0.05 0.05 80 1011.5
20260903164834 76 113 4.0 9.0 0.00 0.05 0.05 81 1011.7
20260903164334 76 119 5.0 10.0 0.00 0.05 0.05 83 1011.8
20260903163833 75 84 5.0 10.0 0.00 0.05 0.05 83 1011.9
20260903163334 75 119 4.0 9.0 0.00 0.05 0.05 84 1011.9
20260903162834 75 94 4.0 9.0 0.00 0.05 0.05 87 1011.7
20260903162334 73 88 3.0 8.0 0.01 0.05 0.05 87 1011.6
20260903161833 73 93 3.0 6.0 0.01 0.05 0.05 87 1011.9
20260903161326 73 109 2.0 6.0 0.01 0.05 0.05 87 1011.9
20260903160821 72 95 2.0 6.0 0.01 0.05 0.05 87 1012.2
20260903160315 72 86 2.0 6.0 0.01 0.05 0.05 87 1012.0
20260903155809 72 96 1.0 4.0 0.01 0.05 0.05 87 1011.9
20260903155306 72 102 3.0 8.0 0.01 0.05 0.05 87 1011.9
20260903154757 72 86 4.0 8.0 0.01 0.05 0.05 87 1011.6
20260903154252 72 95 2.0 7.0 0.01 0.05 0.05 86 1011.8
20260903153746 72 76 2.0 6.0 0.01 0.05 0.05 86 1012.0
20260903153239 73 154 1.0 6.0 0.01 0.05 0.05 86 1012.1
20260903152732 73 126 0.0 2.0 0.01 0.05 0.05 86 1012.0
20260903152227 72 126 1.0 3.0 0.00 0.04 0.04 86 1012.2
20260903151720 72 126 1.0 3.0 0.00 0.04 0.04 86 1012.0
20260903151215 72 88 1.0 4.0 0.00 0.04 0.04 85 1012.1
20260903150709 72 87 2.0 4.0 0.00 0.04 0.04 85 1012.0
20260903150202 72 115 2.0 6.0 0.00 0.04 0.04 86 1011.8
20260903145657 72 63 3.0 7.0 0.00 0.04 0.04 86 1012.0
20260903145151 72 92 3.0 7.0 0.00 0.04 0.04 86 1011.5
20260903144645 71 90 2.0 7.0 0.00 0.04 0.04 87 1011.5
20260903144138 71 91 0.0 6.0 0.00 0.04 0.04 88 1011.7
20260903143633 71 88 0.0 0.0 0.00 0.04 0.04 89 1011.8
20260903143126 71 88 0.0 1.0 0.00 0.04 0.04 88 1011.8
20260903142621 71 89 1.0 6.0 0.00 0.04 0.04 88 1011.7
20260903142115 71 88 1.0 6.0 0.00 0.04 0.04 89 1011.9
20260903141609 70 88 2.0 4.0 0.00 0.04 0.04 89 1012.0
20260903141103 70 88 2.0 4.0 0.00 0.04 0.04 89 1012.0
20260903140825 70 165 1.0 4.0 0.00 0.04 0.04 88 1012.3
20260903140051 70 176 1.0 2.0 0.00 0.04 0.04 88 1012.5
20260903135546 70 176 1.0 2.0 0.00 0.04 0.04 87 1012.2
20260903135300 70 176 1.0 2.0 0.00 0.04 0.04 87 1011.9
20260903134533 70 176 2.0 5.0 0.01 0.04 0.04 87 1012.1
20260903134027 70 176 2.0 5.0 0.02 0.04 0.04 87 1012.0
20260903133521 70 209 1.0 4.0 0.02 0.04 0.04 87 1012.3
20260903133015 70 248 0.0 2.0 0.02 0.04 0.04 88 1012.4
20260903132509 70 248 1.0 2.0 0.02 0.04 0.04 87 1012.5
20260903132003 70 248 1.0 3.0 0.02 0.04 0.04 87 1012.7
20260903131456 70 248 2.0 3.0 0.03 0.04 0.04 87 1012.3
20260903131216 70 230 2.0 10.0 0.03 0.04 0.04 86 1012.4
20260903130445 70 215 2.0 10.0 0.03 0.04 0.04 86 1012.3
20260903125938 71 133 1.0 6.0 0.04 0.04 0.04 86 1012.5
20260903125433 71 158 1.0 7.0 0.04 0.04 0.04 86 1012.6
20260903124927 71 158 2.0 7.0 0.03 0.03 0.03 86 1012.6
20260903124421 71 238 1.0 4.0 0.02 0.02 0.03 86 1012.3
20260903123915 71 57 1.0 3.0 0.02 0.02 0.02 85 1012.2
20260903123626 71 16 1.0 3.0 0.02 0.02 0.02 85 1012.3
20260903122902 71 17 1.0 3.0 0.02 0.02 0.02 85 1012.3
20260903122357 71 339 1.0 2.0 0.02 0.02 0.02 85 1012.2
20260903121850 71 320 2.0 5.0 0.02 0.02 0.02 85 1012.3
20260903121345 71 319 3.0 6.0 0.01 0.01 0.01 85 1012.4
20260903120839 71 173 4.0 8.0 0.01 0.01 0.01 85 1012.5
20260903120332 71 292 5.0 15.0 0.01 0.01 0.01 85 1012.5
20260903115827 71 258 6.0 15.0 0.00 0.00 0.00 86 1012.6
20260903115541 71 280 5.0 11.0 0.00 0.00 0.00 87 1012.6
20260903114815 71 269 4.0 8.0 0.00 0.00 0.00 89 1012.6
20260903114308 71 267 4.0 8.0 0.00 0.00 0.00 89 1012.5
20260903113803 71 315 3.0 8.0 0.00 0.00 0.00 90 1012.2
20260903113257 71 276 3.0 6.0 0.00 0.00 0.00 90 1012.2
20260903112751 71 246 3.0 7.0 0.00 0.01 0.00 90 1011.9
20260903112244 71 266 2.0 9.0 0.00 0.01 0.00 90 1011.9
20260903111959 70 261 0.0 9.0 0.00 0.01 0.00 90 1011.8
20260903111232 70 192 0.0 0.0 0.00 0.01 0.00 90 1011.7
20260903110944 70 192 0.0 0.0 0.00 0.01 0.00 90 1011.8
20260903110439 70 192 0.0 0.0 0.00 0.01 0.00 90 1011.9
20260903105715 70 192 0.0 0.0 0.00 0.02 0.00 90 1011.8
20260903105209 70 192 0.0 0.0 0.00 0.02 0.00 90 1011.8
20260903104709 70 192 0.0 0.0 0.00 0.02 0.00 90 1011.7
20260903104432 70 192 0.0 0.0 0.00 0.03 0.00 90 1011.7
20260903103707 70 192 0.0 0.0 0.00 0.04 0.00 90 1011.7
20260903103206 70 175 0.0 0.0 0.00 0.07 0.00 90 1011.8
20260903102928 70 82 0.0 0.0 0.00 0.12 0.00 89 1011.8
20260903102202 70 82 0.0 0.0 0.00 0.16 0.00 90 1011.6
20260903101702 70 82 0.0 0.0 0.00 0.16 0.00 89 1011.5
20260903101419 70 82 0.0 0.0 0.00 0.18 0.00 90 1011.3
20260903100701 70 82 0.0 0.0 0.00 0.24 0.00 89 1011.2
20260903100158 70 82 0.0 0.0 0.00 0.25 0.00 89 1011.0
20260903095920 70 82 0.0 0.0 0.00 0.25 0.00 89 1011.0
20260903095158 70 82 0.0 0.0 0.00 0.25 0.00 89 1011.1
20260903094656 70 82 0.0 0.0 0.00 0.25 0.00 89 1011.0
20260903094156 70 82 0.0 0.0 0.00 0.25 0.00 89 1010.9
20260903093657 70 82 0.0 0.0 0.00 0.25 0.00 89 1011.0
20260903093415 70 82 0.0 2.0 0.00 0.25 0.00 89 1010.9
20260903092913 70 82 1.0 3.0 0.00 0.25 0.00 89 1010.9
20260903092154 70 82 1.0 5.0 0.00 0.25 0.00 89 1010.7
20260903091651 70 82 1.0 5.0 0.00 0.25 0.00 89 1010.6
20260903091413 70 82 0.0 0.0 0.00 0.25 0.00 89 1010.6
20260903090915 71 82 0.0 0.0 0.00 0.25 0.00 89 1010.7
20260903090151 71 82 0.0 0.0 0.00 0.26 0.00 89 1010.8
20260903085651 71 82 0.0 0.0 0.00 0.27 0.00 88 1010.7
20260903085151 71 82 0.0 0.0 0.00 0.27 0.00 88 1010.6
20260903084650 71 82 0.0 0.0 0.00 0.28 0.00 88 1010.8
20260903084150 71 82 0.0 0.0 0.00 0.28 0.00 88 1010.9
20260903083650 71 82 0.0 0.0 0.00 0.28 0.00 88 1011.0
20260903083150 71 82 0.0 0.0 0.00 0.28 0.00 88 1011.0
20260903082914 71 82 0.0 0.0 0.00 0.28 0.00 88 1010.9
20260903082150 71 82 0.0 0.0 0.00 0.28 0.00 88 1011.0
20260903081651 71 82 0.0 1.0 0.00 0.28 0.00 88 1010.9
20260903081151 71 82 1.0 2.0 0.00 0.28 0.00 88 1011.0
20260903080650 71 82 1.0 2.0 0.00 0.28 0.00 88 1010.9
20260903080150 72 82 1.0 2.0 0.00 0.28 0.00 87 1010.8
20260903075651 72 82 0.0 1.0 0.00 0.28 0.00 87 1010.8
20260903075150 72 82 1.0 2.0 0.00 0.28 0.00 87 1010.8
20260903074651 72 82 1.0 2.0 0.00 0.29 0.00 87 1010.8
20260903074151 72 82 1.0 2.0 0.00 0.30 0.00 87 1010.8
20260903073650 72 82 2.0 3.0 0.00 0.36 0.00 87 1010.9
20260903073150 72 82 2.0 4.0 0.00 0.44 0.00 87 1010.9
20260903072648 72 82 2.0 4.0 0.00 0.66 0.00 87 1011.0
20260903072146 72 82 2.0 5.0 0.00 0.71 0.00 87 1011.1
20260903071646 73 82 3.0 5.0 0.00 0.71 0.00 87 1011.1
20260903071146 73 82 2.0 4.0 0.00 0.71 0.00 86 1011.1
20260903070644 73 81 2.0 4.0 0.00 0.71 0.00 86 1011.2
20260903070142 73 81 2.0 4.0 0.00 0.71 0.00 86 1011.2
20260903065907 73 80 2.0 4.0 0.00 0.71 0.00 86 1011.3
20260903065138 73 80 2.0 3.0 0.00 0.71 0.00 86 1011.4
20260903064636 74 80 2.0 3.0 0.00 0.71 0.00 86 1011.4
20260903064136 74 80 2.0 3.0 0.00 0.71 0.00 86 1011.3
20260903063636 74 80 2.0 3.0 0.00 0.71 0.00 85 1011.4
20260903063135 74 80 2.0 4.0 0.00 0.71 0.00 85 1011.5
20260903062627 74 80 1.0 4.0 0.00 0.71 0.00 85 1011.4
20260903062122 74 75 2.0 3.0 0.00 0.71 0.00 85 1011.4
20260903061615 74 75 2.0 3.0 0.00 0.71 0.00 85 1011.5
20260903061110 74 75 3.0 5.0 0.00 0.71 0.00 85 1011.5
20260903060603 74 75 3.0 5.0 0.00 0.71 0.00 85 1011.5
20260903060058 74 83 3.0 6.0 0.00 0.71 0.00 86 1011.5
20260903055552 74 90 3.0 6.0 0.00 0.71 0.00 86 1011.5
20260903055046 74 89 3.0 5.0 0.00 0.71 0.00 86 1011.5
20260903054546 74 82 3.0 4.0 0.00 0.71 0.00 86 1011.4